User: anonymous
Location: The D'Auria's Ocala Star Observatory
(29.0276°N, 82.1742°W)
Time: 04:06:38
(UTC-04:00)
Language:

Abrixas rocket - Orbit

View from above orbital plane
View from above orbital plane
View from above satellite
View from above satellite

Ground track
Ground track

The orbit data is extracted from the following two-line orbital elements,

1 25723U 99022C   14107.18212406  .00013439  00000-0  46713-3 0  6304
2 25723 048.4220 115.1337 0018885 303.5071 105.0790 15.29763405827811
Epoch (UTC): 17 April 2014 04:22:15
Eccentricity: 0.0018885
inclination: 48.4220°
perigee height: 463 km
apogee height: 489 km
right ascension of ascending node: 115.1337°
argument of perigee: 303.5071°
revolutions per day: 15.29763405
mean anomaly at epoch: 105.0790°
orbit number at epoch: 82781

The dashed part of the orbit path shows where the satellite is in the earth's shadow,  

DLR